When you browse on this site, cookies collect data to enhance your experience and personalize the content and advertising you see.
Visit our Privacy Policy to learn more. By continuing to use the site, you agree to this use of cookies and data.

Hourly Weather Carlisle

Today, 9 August, Sunday

Time Temperature Precipitation Wind Pressure Humidity
00:00 +11°C° 0 mm 3 mps 766 mmHg 92%
01:00 +11°C° 0 mm 3 mps 766 mmHg 92%
02:00 +11°C° 0 mm 3 mps 766 mmHg 92%
03:00 +11°C° 0 mm 3 mps 766 mmHg 92%
04:00 +11°C° 0 mm 3 mps 765 mmHg 92%
05:00 +12°C° 0 mm 3 mps 765 mmHg 92%
06:00 +12°C° 0 mm 4 mps 765 mmHg 92%
07:00 +14°C° 0 mm 4 mps 765 mmHg 89%
08:00 +15°C° 0 mm 4 mps 765 mmHg 85%
09:00 +17°C° 0 mm 4 mps 765 mmHg 81%
10:00 +18°C° 0 mm 4 mps 765 mmHg 79%
11:00 +19°C° 0 mm 5 mps 765 mmHg 77%
12:00 +21°C° 0 mm 4 mps 764 mmHg 75%
13:00 +21°C° 0 mm 5 mps 764 mmHg 75%
14:00 +21°C° 0 mm 5 mps 764 mmHg 75%
15:00 +21°C° 0 mm 5 mps 764 mmHg 75%
16:00 +20°C° 0 mm 5 mps 763 mmHg 78%
17:00 +19°C° 0 mm 4 mps 763 mmHg 80%
18:00 +18°C° 0 mm 4 mps 763 mmHg 82%
19:00 +18°C° 0 mm 4 mps 763 mmHg 84%
20:00 +17°C° 0 mm 4 mps 763 mmHg 86%
21:00 +16°C° 0 mm 3 mps 763 mmHg 88%
22:00 +16°C° 0 mm 3 mps 763 mmHg 88%
23:00 +16°C° 0 mm 3 mps 763 mmHg 88%

Tomorrow, 10 August, Monday

Time Temperature Precipitation Wind Pressure Humidity
00:00 +16°C° 0 mm 3 mps 763 mmHg 88%
01:00 +16°C° 0 mm 3 mps 763 mmHg 89%
02:00 +14°C° 0 mm 3 mps 762 mmHg 89%
03:00 +14°C° 0 mm 3 mps 762 mmHg 90%
04:00 +14°C° 0 mm 3 mps 762 mmHg 91%
05:00 +14°C° 0 mm 3 mps 762 mmHg 92%
06:00 +14°C° 0 mm 3 mps 762 mmHg 93%
07:00 +16°C° 0 mm 3 mps 762 mmHg 90%
08:00 +18°C° 0 mm 3 mps 762 mmHg 87%
09:00 +19°C° 0 mm 3 mps 762 mmHg 84%
10:00 +20°C° 0.2 mm 3 mps 762 mmHg 82%
11:00 +21°C° 0.2 mm 3 mps 762 mmHg 80%
12:00 +22°C° 0.2 mm 3 mps 761 mmHg 78%
13:00 +22°C° 0.2 mm 3 mps 761 mmHg 77%
14:00 +22°C° 0.2 mm 4 mps 761 mmHg 77%
15:00 +23°C° 0.2 mm 4 mps 761 mmHg 76%
16:00 +22°C° 0 mm 4 mps 761 mmHg 79%
17:00 +21°C° 0 mm 4 mps 761 mmHg 81%
18:00 +20°C° 0 mm 3 mps 761 mmHg 84%
19:00 +19°C° 0 mm 3 mps 761 mmHg 85%
20:00 +18°C° 0 mm 3 mps 761 mmHg 87%
21:00 +17°C° 0 mm 3 mps 761 mmHg 89%
22:00 +16°C° 0.2 mm 3 mps 761 mmHg 91%
23:00 +16°C° 0.2 mm 2 mps 761 mmHg 92%

Day after tomorrow, 11 August, Tuesday

Time Temperature Precipitation Wind Pressure Humidity
00:00 +16°C° 0.2 mm 2 mps 761 mmHg 93%
01:00 +16°C° 0.5 mm 3 mps 761 mmHg 94%
02:00 +16°C° 0.5 mm 3 mps 761 mmHg 95%
03:00 +16°C° 0.5 mm 3 mps 760 mmHg 95%
04:00 +16°C° 0.8 mm 3 mps 760 mmHg 96%
05:00 +16°C° 0.8 mm 3 mps 760 mmHg 96%
06:00 +17°C° 0.8 mm 3 mps 760 mmHg 96%
07:00 +18°C° 0.7 mm 2 mps 760 mmHg 94%
08:00 +19°C° 0.7 mm 2 mps 760 mmHg 93%
09:00 +21°C° 0.7 mm 2 mps 760 mmHg 91%
10:00 +23°C° 0 mm 2 mps 760 mmHg 88%
11:00 +24°C° 0 mm 2 mps 760 mmHg 86%
12:00 +25°C° 0 mm 2 mps 760 mmHg 83%
13:00 +26°C° 0 mm 2 mps 759 mmHg 82%
14:00 +26°C° 0 mm 2 mps 759 mmHg 82%
15:00 +26°C° 0 mm 2 mps 759 mmHg 82%
16:00 +26°C° 0.6 mm 2 mps 759 mmHg 84%
17:00 +25°C° 0.6 mm 2 mps 759 mmHg 87%
18:00 +25°C° 0.6 mm 2 mps 758 mmHg 90%
19:00 +24°C° 0.4 mm 1 mps 759 mmHg 92%
20:00 +22°C° 0.4 mm 1 mps 759 mmHg 94%
21:00 +21°C° 0.4 mm 1 mps 759 mmHg 96%
22:00 +21°C° 0.2 mm 1 mps 759 mmHg 96%
23:00 +20°C° 0.2 mm 1 mps 759 mmHg 97%

12 August, Wednesday

Time Temperature Precipitation Wind Pressure Humidity
00:00 +20°C° 0.2 mm 1 mps 759 mmHg 97%
01:00 +20°C° 0.3 mm 1 mps 758 mmHg 97%
02:00 +20°C° 0.3 mm 1 mps 758 mmHg 97%
03:00 +18°C° 0.3 mm 0 mps 758 mmHg 97%
04:00 +18°C° 0.2 mm 0 mps 758 mmHg 97%
05:00 +18°C° 0.2 mm 0 mps 757 mmHg 97%
06:00 +19°C° 0.2 mm 0 mps 757 mmHg 97%
07:00 +19°C° 0 mm 0 mps 757 mmHg 96%
08:00 +20°C° 0 mm 0 mps 757 mmHg 94%
09:00 +22°C° 0 mm 1 mps 758 mmHg 93%
10:00 +23°C° 0 mm 1 mps 758 mmHg 91%
11:00 +24°C° 0 mm 1 mps 758 mmHg 89%
12:00 +24°C° 0 mm 1 mps 758 mmHg 86%
13:00 +24°C° 0.1 mm 1 mps 757 mmHg 85%
14:00 +25°C° 0.1 mm 1 mps 757 mmHg 84%
15:00 +25°C° 0.1 mm 1 mps 757 mmHg 83%
16:00 +24°C° 0 mm 1 mps 757 mmHg 85%
17:00 +24°C° 0 mm 1 mps 757 mmHg 87%
18:00 +24°C° 0 mm 1 mps 757 mmHg 90%
19:00 +22°C° 0 mm 1 mps 757 mmHg 92%
20:00 +21°C° 0 mm 1 mps 757 mmHg 94%
21:00 +18°C° 0 mm 0 mps 757 mmHg 96%
22:00 +20°C° 0.1 mm 1 mps 757 mmHg 95%
23:00 +20°C° 0.1 mm 1 mps 757 mmHg 95%

13 August, Thursday

Time Temperature Precipitation Wind Pressure Humidity
00:00 +20°C° 0.1 mm 1 mps 757 mmHg 95%
01:00 +19°C° 2.1 mm 2 mps 756 mmHg 96%
02:00 +19°C° 2.1 mm 2 mps 756 mmHg 97%
03:00 +19°C° 2.1 mm 3 mps 755 mmHg 98%
04:00 +19°C° 1.9 mm 3 mps 755 mmHg 98%
05:00 +19°C° 1.9 mm 3 mps 754 mmHg 97%
06:00 +19°C° 1.9 mm 3 mps 754 mmHg 97%
07:00 +20°C° 1.4 mm 3 mps 754 mmHg 96%
08:00 +20°C° 1.4 mm 4 mps 754 mmHg 95%
09:00 +20°C° 1.4 mm 4 mps 754 mmHg 94%
10:00 +21°C° 0.6 mm 3 mps 754 mmHg 93%
11:00 +21°C° 0.6 mm 3 mps 754 mmHg 93%
12:00 +21°C° 0.6 mm 3 mps 753 mmHg 92%
13:00 +22°C° 0.1 mm 3 mps 753 mmHg 90%
14:00 +24°C° 0.1 mm 3 mps 753 mmHg 87%
15:00 +25°C° 0.1 mm 2 mps 753 mmHg 85%
16:00 +24°C° 0.1 mm 2 mps 753 mmHg 87%
17:00 +23°C° 0.1 mm 2 mps 753 mmHg 89%
18:00 +23°C° 0.1 mm 2 mps 753 mmHg 91%
19:00 +21°C° 0.1 mm 2 mps 753 mmHg 93%
20:00 +21°C° 0.1 mm 1 mps 753 mmHg 94%
21:00 +21°C° 0.1 mm 1 mps 753 mmHg 95%
22:00 +20°C° 0 mm 1 mps 753 mmHg 96%
23:00 +20°C° 0 mm 1 mps 753 mmHg 96%

14 August, Friday

Time Temperature Precipitation Wind Pressure Humidity
00:00 +20°C° 0 mm 1 mps 753 mmHg 96%
01:00 +20°C° 0.3 mm 1 mps 753 mmHg 96%
02:00 +20°C° 0.3 mm 1 mps 752 mmHg 96%
03:00 +19°C° 0.3 mm 2 mps 752 mmHg 97%
04:00 +19°C° 0.3 mm 2 mps 752 mmHg 97%
05:00 +19°C° 0.3 mm 2 mps 752 mmHg 97%
06:00 +19°C° 0.3 mm 2 mps 752 mmHg 97%
07:00 +20°C° 0.1 mm 2 mps 752 mmHg 96%
08:00 +20°C° 0.1 mm 2 mps 752 mmHg 95%
09:00 +21°C° 0.1 mm 2 mps 752 mmHg 93%
10:00 +21°C° 0.5 mm 2 mps 752 mmHg 91%
11:00 +22°C° 0.5 mm 3 mps 752 mmHg 88%
12:00 +24°C° 0.5 mm 3 mps 752 mmHg 86%
13:00 +24°C° 1.2 mm 3 mps 752 mmHg 86%
14:00 +24°C° 1.2 mm 2 mps 752 mmHg 87%
15:00 +23°C° 1.2 mm 2 mps 752 mmHg 88%
16:00 +23°C° 1 mm 2 mps 753 mmHg 90%
17:00 +21°C° 1 mm 2 mps 753 mmHg 92%
18:00 +20°C° 1 mm 2 mps 753 mmHg 94%
19:00 +19°C° 0.1 mm 2 mps 753 mmHg 95%
20:00 +18°C° 0.1 mm 2 mps 754 mmHg 96%
21:00 +18°C° 0.1 mm 2 mps 754 mmHg 97%
22:00 +17°C° 0 mm 2 mps 755 mmHg 97%
23:00 +17°C° 0 mm 2 mps 755 mmHg 97%
Show more